Location: Gesvres
(49.0440°N, 2.8518°E)
Time: 00:46:16
(UTC+00:00)

Feng Yun 1-1 Rocket - Pass Details

Date: 28 January 2023
Orbit: 830 x 933 km, 99.1° (Epoch: 21 March)

Event Time Altitude Azimuth Distance (km) Brightness Sun altitude
Rises 18:45:43 0° 157° (SSE) 3,486 7.2 -20.7°
Reaches altitude 10° 18:48:08 10° 156° (SSE) 2,535 6.5 -21.1°
Maximum altitude 18:53:45 76° 71° (ENE) 895 4.1 -22.1°
Drops below altitude 10° 18:59:15 10° 347° (NNW) 2,487 6.8 -23.0°
Sets 19:01:36 0° 346° (NNW) 3,415 7.5 -23.3°
